QPF
0.06 0.07 0.12 0.11 0.12 0.11 0.09 0.08 0.11 0.14 0.16 0.18 0.18 0.15 0.11 0.12 0.10 0.10 0.13 0.16 0.21 0.19 0.15 0.14 0.11 0.08 0.07 0.07 0.07 0.06 0.06 0.07 0.06 0.07 0.07 0.07 0.08 0.09 0.09 0.07 0.05 0.03 0.03
0.06 0.07 0.10 0.09 0.10 0.10 0.08 0.08 0.09 0.11 0.10 0.12 0.14 0.15 0.12 0.10 0.11 0.13 0.16 0.22 0.24 0.17 0.14 0.11 0.08 0.07 0.08 0.10 0.09 0.07 0.09 0.10 0.11 0.10 0.09 0.08 0.10 0.09 0.09 0.08 0.05 0.03 0.03
0.03 0.06 0.09 0.11 0.11 0.10 0.08 0.06 0.06 0.08 0.08 0.10 0.13 0.16 0.14 0.10 0.14 0.17 0.18 0.21 0.17 0.14 0.11 0.08 0.09 0.12 0.17 0.19 0.14 0.12 0.11 0.13 0.15 0.13 0.10 0.08 0.10 0.09 0.08 0.09 0.06 0.03 0.03
0.03 0.07 0.09 0.12 0.12 0.09 0.07 0.06 0.06 0.07 0.08 0.10 0.13 0.14 0.12 0.11 0.13 0.15 0.15 0.15 0.15 0.15 0.12 0.11 0.12 0.17 0.23 0.21 0.16 0.13 0.13 0.17 0.14 0.11 0.08 0.07 0.05 0.06 0.05 0.06 0.05 0.05 0.05
0.02 0.05 0.09 0.12 0.12 0.10 0.07 0.07 0.08 0.09 0.10 0.11 0.12 0.12 0.11 0.12 0.11 0.14 0.14 0.15 0.17 0.15 0.14 0.11 0.10 0.13 0.14 0.13 0.12 0.09 0.09 0.11 0.11 0.08 0.05 0.04 0.02 0.05 0.05 0.05 0.06 0.05 0.04
0.02 0.04 0.06 0.10 0.13 0.15 0.12 0.11 0.13 0.13 0.13 0.14 0.15 0.15 0.11 0.12 0.13 0.16 0.15 0.15 0.15 0.14 0.11 0.09 0.07 0.07 0.07 0.07 0.07 0.04 0.04 0.07 0.07 0.04 0.03 0.03 0.02 0.04 0.05 0.05 0.06 0.05 0.04
0.02 0.04 0.06 0.08 0.09 0.16 0.18 0.14 0.17 0.19 0.20 0.19 0.19 0.17 0.14 0.14 0.15 0.17 0.16 0.15 0.12 0.11 0.09 0.08 0.07 0.07 0.04 0.04 0.04 0.04 0.05 0.05 0.03 0.02 0.02 0.02 0.02 0.03 0.05 0.06 0.07 0.05 0.04
0.02 0.03 0.04 0.10 0.09 0.15 0.23 0.18 0.15 0.17 0.16 0.12 0.11 0.12 0.11 0.12 0.14 0.16 0.16 0.14 0.09 0.08 0.07 0.07 0.05 0.05 0.04 0.03 0.03 0.04 0.05 0.04 0.03 0.02 0.01 0.02 0.02 0.03 0.04 0.06 0.07 0.06 0.05
0.01 0.01 0.02 0.07 0.09 0.13 0.23 0.29 0.23 0.15 0.11 0.08 0.08 0.08 0.08 0.11 0.12 0.11 0.11 0.11 0.08 0.07 0.07 0.06 0.04 0.04 0.04 0.03 0.04 0.05 0.05 0.04 0.02 0.02 0.02 0.02 0.02 0.04 0.05 0.05 0.05 0.06 0.06
0.00 0.00 0.01 0.03 0.05 0.07 0.13 0.21 0.20 0.13 0.11 0.10 0.09 0.10 0.11 0.10 0.09 0.09 0.08 0.10 0.08 0.07 0.07 0.07 0.05 0.04 0.04 0.04 0.05 0.07 0.08 0.05 0.02 0.02 0.02 0.03 0.03 0.05 0.06 0.05 0.04 0.06 0.07
0.01 0.01 0.01 0.01 0.01 0.02 0.06 0.14 0.15 0.13 0.13 0.13 0.11 0.11 0.12 0.10 0.08 0.10 0.08 0.08 0.07 0.07 0.08 0.08 0.08 0.06 0.05 0.05 0.05 0.07 0.07 0.03 0.03 0.02 0.04 0.05 0.05 0.07 0.06 0.04 0.04 0.05 0.05
0.01 0.01 0.01 0.01 0.01 0.01 0.04 0.09 0.12 0.13 0.11 0.08 0.06 0.05 0.05 0.06 0.06 0.08 0.10 0.10 0.08 0.08 0.09 0.09 0.09 0.08 0.05 0.04 0.05 0.06 0.03 0.02 0.03 0.03 0.05 0.07 0.05 0.05 0.05 0.04 0.04 0.03 0.03
0.01 0.01 0.01 0.01 0.02 0.03 0.04 0.05 0.09 0.09 0.08 0.07 0.05 0.04 0.03 0.05 0.06 0.07 0.07 0.10 0.10 0.11 0.08 0.07 0.08 0.06 0.05 0.04 0.03 0.02 0.03 0.02 0.03 0.04 0.07 0.09 0.07 0.06 0.06 0.05 0.05 0.04 0.04
0.01 0.01 0.01 0.01 0.03 0.03 0.04 0.04 0.05 0.05 0.06 0.07 0.05 0.04 0.03 0.04 0.06 0.07 0.06 0.09 0.11 0.09 0.09 0.09 0.09 0.09 0.06 0.04 0.02 0.02 0.02 0.02 0.04 0.06 0.09 0.09 0.09 0.07 0.06 0.06 0.06 0.05 0.04
0.01 0.01 0.00 0.00 0.01 0.02 0.02 0.03 0.03 0.05 0.07 0.06 0.05 0.04 0.05 0.05 0.07 0.08 0.11 0.14 0.11 0.09 0.11 0.11 0.08 0.08 0.06 0.05 0.04 0.03 0.03 0.04 0.06 0.06 0.07 0.09 0.10 0.09 0.09 0.06 0.06 0.06 0.06
0.01 0.00 0.00 0.00 0.00 0.01 0.01 0.02 0.03 0.04 0.06 0.07 0.05 0.04 0.05 0.05 0.07 0.08 0.10 0.14 0.12 0.12 0.11 0.07 0.06 0.07 0.07 0.06 0.08 0.07 0.05 0.06 0.05 0.04 0.04 0.06 0.07 0.07 0.08 0.07 0.06 0.06 0.06
0.01 0.00 0.00 0.00 0.01 0.01 0.01 0.02 0.02 0.02 0.05 0.07 0.06 0.04 0.03 0.04 0.06 0.07 0.09 0.10 0.10 0.10 0.10 0.09 0.08 0.08 0.08 0.07 0.08 0.08 0.07 0.07 0.05 0.05 0.06 0.06 0.04 0.04 0.06 0.06 0.06 0.05 0.06
0.01 0.01 0.01 0.01 0.00 0.01 0.01 0.01 0.01 0.02 0.04 0.08 0.06 0.05 0.05 0.04 0.05 0.06 0.07 0.09 0.11 0.11 0.10 0.12 0.11 0.09 0.08 0.07 0.05 0.05 0.06 0.07 0.08 0.09 0.11 0.08 0.05 0.03 0.04 0.06 0.07 0.06 0.06
0.00 0.00 0.00 0.00 0.00 0.01 0.01 0.01 0.01 0.02 0.04 0.06 0.06 0.06 0.06 0.05 0.04 0.06 0.07 0.09 0.10 0.11 0.11 0.10 0.08 0.08 0.07 0.07 0.05 0.05 0.07 0.07 0.08 0.08 0.09 0.10 0.09 0.06 0.03 0.04 0.06 0.08 0.09
0.00 0.00 0.00 0.00 0.00 0.01 0.00 0.01 0.01 0.02 0.03 0.05 0.07 0.07 0.07 0.07 0.07 0.07 0.08 0.08 0.09 0.09 0.08 0.07 0.07 0.07 0.05 0.06 0.07 0.07 0.09 0.09 0.06 0.05 0.05 0.06 0.08 0.09 0.07 0.04 0.03 0.05 0.09
0.00 0.00 0.00 0.00 0.00 0.00 0.00 0.01 0.01 0.01 0.01 0.03 0.07 0.11 0.11 0.09 0.07 0.07 0.08 0.07 0.06 0.06 0.06 0.05 0.05 0.03 0.05 0.05 0.06 0.07 0.08 0.08 0.06 0.04 0.04 0.03 0.04 0.05 0.07 0.06 0.04 0.03 0.04
0.00 0.00 0.00 0.00 0.00 0.00 0.00 0.01 0.01 0.02 0.02 0.02 0.04 0.08 0.10 0.06 0.05 0.04 0.05 0.04 0.03 0.02 0.04 0.04 0.04 0.03 0.04 0.05 0.05 0.06 0.07 0.09 0.07 0.04 0.03 0.02 0.03 0.04 0.05 0.07 0.06 0.04 0.04
0.00 0.00 0.00 0.00 0.00 0.00 0.00 0.01 0.01 0.01 0.01 0.02 0.03 0.05 0.05 0.04 0.04 0.04 0.05 0.04 0.03 0.02 0.02 0.04 0.06 0.05 0.05 0.05 0.06 0.07 0.06 0.06 0.05 0.03 0.02 0.02 0.03 0.04 0.05 0.06 0.07 0.06 0.05
0.00 0.00 0.00 0.00 0.00 0.00 0.01 0.01 0.01 0.02 0.03 0.03 0.04 0.04 0.04 0.03 0.03 0.04 0.06 0.06 0.05 0.05 0.04 0.04 0.06 0.07 0.05 0.06 0.08 0.08 0.07 0.06 0.04 0.04 0.03 0.02 0.02 0.02 0.05 0.06 0.06 0.05 0.04
0.01 0.00 0.00 0.00 0.00 0.00 0.01 0.02 0.03 0.04 0.05 0.06 0.06 0.05 0.05 0.04 0.04 0.05 0.05 0.06 0.04 0.04 0.05 0.04 0.05 0.06 0.08 0.10 0.10 0.11 0.11 0.08 0.07 0.05 0.04 0.03 0.02 0.02 0.04 0.04 0.04 0.03 0.02
0.01 0.01 0.00 0.00 0.00 0.01 0.02 0.04 0.06 0.06 0.07 0.07 0.05 0.04 0.03 0.02 0.03 0.03 0.04 0.06 0.06 0.06 0.07 0.08 0.07 0.06 0.07 0.07 0.06 0.07 0.09 0.11 0.09 0.06 0.03 0.02 0.03 0.02 0.02 0.02 0.02 0.02 0.03
MSLP
1012.17 1011.65 1011.25 1011.03 1011.00 1011.12 1011.35 1011.62 1011.87 1012.07 1012.19 1012.28 1012.35 1012.45 1012.61 1012.83 1013.11 1013.41 1013.69 1013.93 1014.11 1014.23 1014.32 1014.39 1014.49 1014.63 1014.82 1015.06 1015.31 1015.56 1015.80 1016.01 1016.19 1016.36 1016.51 1016.67 1016.83 1016.99 1017.14 1017.28 1017.40 1017.50 1017.59
1012.21 1011.75 1011.42 1011.25 1011.26 1011.42 1011.67 1011.94 1012.19 1012.38 1012.51 1012.61 1012.70 1012.82 1013.01 1013.25 1013.54 1013.85 1014.13 1014.35 1014.52 1014.63 1014.70 1014.76 1014.85 1014.98 1015.14 1015.35 1015.57 1015.79 1015.99 1016.17 1016.34 1016.49 1016.64 1016.80 1016.97 1017.14 1017.31 1017.47 1017.60 1017.72 1017.82
1012.11 1011.75 1011.50 1011.42 1011.50 1011.71 1012.00 1012.30 1012.56 1012.77 1012.91 1013.01 1013.12 1013.25 1013.44 1013.68 1013.95 1014.23 1014.49 1014.69 1014.84 1014.93 1015.00 1015.06 1015.14 1015.26 1015.42 1015.61 1015.80 1015.99 1016.17 1016.33 1016.47 1016.62 1016.77 1016.93 1017.11 1017.30 1017.48 1017.65 1017.80 1017.93 1018.05
1011.96 1011.69 1011.55 1011.56 1011.73 1012.00 1012.34 1012.68 1012.97 1013.19 1013.34 1013.45 1013.56 1013.68 1013.85 1014.07 1014.31 1014.55 1014.76 1014.94 1015.06 1015.15 1015.22 1015.29 1015.38 1015.51 1015.67 1015.84 1016.02 1016.19 1016.35 1016.49 1016.62 1016.76 1016.91 1017.08 1017.26 1017.46 1017.65 1017.82 1017.98 1018.13 1018.26
1011.83 1011.67 1011.63 1011.73 1011.98 1012.31 1012.69 1013.05 1013.35 1013.58 1013.74 1013.86 1013.96 1014.07 1014.22 1014.39 1014.59 1014.79 1014.96 1015.10 1015.21 1015.30 1015.38 1015.48 1015.59 1015.74 1015.91 1016.08 1016.25 1016.40 1016.54 1016.66 1016.78 1016.91 1017.06 1017.24 1017.43 1017.62 1017.82 1018.00 1018.16 1018.31 1018.46
1011.80 1011.73 1011.78 1011.96 1012.26 1012.63 1013.02 1013.38 1013.68 1013.91 1014.06 1014.18 1014.27 1014.38 1014.50 1014.65 1014.81 1014.97 1015.11 1015.23 1015.34 1015.43 1015.54 1015.66 1015.81 1015.98 1016.16 1016.33 1016.49 1016.63 1016.74 1016.84 1016.95 1017.08 1017.22 1017.40 1017.59 1017.78 1017.97 1018.15 1018.31 1018.47 1018.62
1011.90 1011.91 1012.03 1012.26 1012.58 1012.94 1013.31 1013.65 1013.92 1014.13 1014.27 1014.38 1014.48 1014.59 1014.71 1014.85 1014.99 1015.13 1015.25 1015.37 1015.47 1015.59 1015.72 1015.88 1016.06 1016.25 1016.43 1016.60 1016.74 1016.85 1016.94 1017.02 1017.11 1017.22 1017.36 1017.53 1017.72 1017.91 1018.10 1018.27 1018.43 1018.59 1018.74
1012.10 1012.18 1012.34 1012.59 1012.90 1013.24 1013.56 1013.83 1014.06 1014.23 1014.37 1014.48 1014.60 1014.73 1014.87 1015.02 1015.16 1015.29 1015.41 1015.53 1015.64 1015.78 1015.93 1016.12 1016.32 1016.52 1016.71 1016.86 1016.98 1017.06 1017.11 1017.16 1017.22 1017.32 1017.45 1017.61 1017.80 1017.99 1018.17 1018.34 1018.50 1018.65 1018.81
1012.35 1012.48 1012.68 1012.93 1013.21 1013.49 1013.74 1013.95 1014.12 1014.26 1014.39 1014.52 1014.66 1014.83 1015.00 1015.18 1015.34 1015.48 1015.60 1015.72 1015.84 1015.99 1016.16 1016.35 1016.56 1016.77 1016.95 1017.08 1017.16 1017.20 1017.22 1017.23 1017.26 1017.33 1017.45 1017.61 1017.79 1017.98 1018.17 1018.33 1018.49 1018.64 1018.80
1012.57 1012.76 1012.98 1013.23 1013.47 1013.69 1013.87 1014.02 1014.14 1014.25 1014.38 1014.53 1014.72 1014.93 1015.15 1015.35 1015.53 1015.69 1015.81 1015.92 1016.04 1016.18 1016.35 1016.55 1016.75 1016.95 1017.11 1017.22 1017.27 1017.27 1017.25 1017.22 1017.22 1017.27 1017.37 1017.52 1017.70 1017.90 1018.08 1018.25 1018.41 1018.56 1018.72
1012.69 1012.93 1013.18 1013.43 1013.65 1013.82 1013.96 1014.06 1014.15 1014.25 1014.39 1014.58 1014.80 1015.06 1015.31 1015.55 1015.74 1015.89 1016.01 1016.10 1016.20 1016.32 1016.47 1016.65 1016.85 1017.03 1017.17 1017.26 1017.28 1017.25 1017.20 1017.14 1017.11 1017.14 1017.22 1017.36 1017.54 1017.74 1017.93 1018.10 1018.26 1018.42 1018.57
1012.67 1012.96 1013.25 1013.51 1013.72 1013.88 1013.99 1014.07 1014.16 1014.27 1014.44 1014.66 1014.92 1015.21 1015.49 1015.74 1015.93 1016.07 1016.16 1016.22 1016.29 1016.38 1016.51 1016.67 1016.84 1017.01 1017.14 1017.21 1017.22 1017.17 1017.09 1017.01 1016.96 1016.96 1017.03 1017.16 1017.33 1017.52 1017.72 1017.90 1018.07 1018.22 1018.38
1012.49 1012.83 1013.16 1013.45 1013.68 1013.85 1013.97 1014.07 1014.17 1014.31 1014.51 1014.76 1015.05 1015.35 1015.64 1015.89 1016.07 1016.18 1016.24 1016.27 1016.30 1016.36 1016.46 1016.59 1016.75 1016.91 1017.03 1017.10 1017.11 1017.06 1016.97 1016.88 1016.81 1016.79 1016.84 1016.95 1017.10 1017.29 1017.48 1017.67 1017.84 1018.00 1018.16
1012.18 1012.56 1012.93 1013.25 1013.51 1013.72 1013.88 1014.02 1014.17 1014.34 1014.56 1014.83 1015.13 1015.44 1015.72 1015.95 1016.11 1016.20 1016.23 1016.23 1016.24 1016.27 1016.35 1016.47 1016.62 1016.77 1016.90 1016.98 1017.00 1016.96 1016.87 1016.78 1016.70 1016.66 1016.68 1016.77 1016.90 1017.08 1017.26 1017.45 1017.62 1017.79 1017.94
1011.79 1012.19 1012.57 1012.93 1013.24 1013.50 1013.72 1013.91 1014.10 1014.31 1014.56 1014.83 1015.12 1015.41 1015.67 1015.88 1016.02 1016.10 1016.13 1016.13 1016.13 1016.16 1016.23 1016.35 1016.49 1016.65 1016.79 1016.89 1016.93 1016.91 1016.84 1016.75 1016.66 1016.61 1016.60 1016.66 1016.77 1016.92 1017.09 1017.27 1017.44 1017.60 1017.76
1011.35 1011.74 1012.14 1012.52 1012.88 1013.19 1013.47 1013.72 1013.96 1014.19 1014.45 1014.71 1014.98 1015.24 1015.47 1015.66 1015.80 1015.89 1015.94 1015.96 1015.99 1016.04 1016.13 1016.26 1016.42 1016.58 1016.74 1016.86 1016.92 1016.92 1016.88 1016.80 1016.72 1016.65 1016.62 1016.65 1016.72 1016.84 1016.99 1017.15 1017.32 1017.47 1017.63
1010.90 1011.27 1011.66 1012.06 1012.44 1012.80 1013.14 1013.44 1013.72 1013.97 1014.21 1014.45 1014.68 1014.90 1015.11 1015.29 1015.45 1015.58 1015.68 1015.77 1015.85 1015.95 1016.07 1016.22 1016.39 1016.57 1016.74 1016.87 1016.96 1017.00 1016.98 1016.93 1016.85 1016.78 1016.74 1016.73 1016.77 1016.86 1016.98 1017.12 1017.27 1017.42 1017.56
1010.43 1010.77 1011.14 1011.55 1011.96 1012.37 1012.75 1013.09 1013.40 1013.65 1013.87 1014.07 1014.25 1014.44 1014.62 1014.82 1015.01 1015.20 1015.38 1015.55 1015.72 1015.88 1016.05 1016.22 1016.41 1016.59 1016.76 1016.91 1017.03 1017.10 1017.11 1017.09 1017.04 1016.98 1016.93 1016.90 1016.91 1016.96 1017.06 1017.17 1017.31 1017.45 1017.58
1009.93 1010.24 1010.59 1011.00 1011.44 1011.89 1012.31 1012.70 1013.02 1013.27 1013.47 1013.62 1013.75 1013.90 1014.06 1014.27 1014.51 1014.77 1015.04 1015.31 1015.57 1015.80 1016.02 1016.22 1016.41 1016.59 1016.77 1016.93 1017.07 1017.17 1017.23 1017.26 1017.24 1017.20 1017.16 1017.12 1017.11 1017.14 1017.20 1017.30 1017.41 1017.54 1017.66
1009.36 1009.64 1009.99 1010.41 1010.88 1011.37 1011.85 1012.27 1012.61 1012.86 1013.03 1013.14 1013.23 1013.33 1013.48 1013.70 1013.99 1014.32 1014.68 1015.05 1015.38 1015.68 1015.94 1016.16 1016.35 1016.53 1016.71 1016.88 1017.04 1017.18 1017.30 1017.38 1017.41 1017.41 1017.39 1017.36 1017.35 1017.35 1017.39 1017.46 1017.56 1017.67 1017.79
1008.68 1008.95 1009.31 1009.75 1010.26 1010.81 1011.34 1011.81 1012.18 1012.44 1012.59 1012.67 1012.72 1012.79 1012.93 1013.15 1013.47 1013.86 1014.30 1014.73 1015.14 1015.49 1015.77 1016.00 1016.19 1016.36 1016.53 1016.72 1016.91 1017.11 1017.28 1017.43 1017.53 1017.58 1017.59 1017.58 1017.56 1017.56 1017.58 1017.63 1017.72 1017.82 1017.92
1007.87 1008.15 1008.53 1009.01 1009.57 1010.18 1010.78 1011.31 1011.72 1012.00 1012.16 1012.22 1012.24 1012.29 1012.41 1012.64 1012.98 1013.40 1013.88 1014.36 1014.80 1015.18 1015.48 1015.71 1015.89 1016.06 1016.24 1016.45 1016.68 1016.93 1017.18 1017.39 1017.56 1017.67 1017.72 1017.73 1017.72 1017.71 1017.72 1017.76 1017.83 1017.93 1018.03
1006.97 1007.25 1007.65 1008.17 1008.78 1009.46 1010.12 1010.72 1011.19 1011.51 1011.69 1011.76 1011.78 1011.82 1011.93 1012.15 1012.48 1012.92 1013.41 1013.91 1014.37 1014.76 1015.06 1015.29 1015.48 1015.65 1015.85 1016.08 1016.36 1016.66 1016.97 1017.26 1017.49 1017.65 1017.74 1017.78 1017.78 1017.77 1017.77 1017.81 1017.87 1017.96 1018.08
1006.01 1006.30 1006.70 1007.24 1007.90 1008.63 1009.36 1010.01 1010.55 1010.93 1011.15 1011.24 1011.28 1011.32 1011.43 1011.65 1011.97 1012.40 1012.89 1013.39 1013.84 1014.23 1014.53 1014.77 1014.96 1015.15 1015.38 1015.65 1015.97 1016.33 1016.69 1017.03 1017.31 1017.52 1017.64 1017.70 1017.71 1017.70 1017.71 1017.73 1017.80 1017.90 1018.02
1005.11 1005.36 1005.76 1006.30 1006.97 1007.72 1008.48 1009.19 1009.78 1010.21 1010.48 1010.63 1010.70 1010.77 1010.89 1011.10 1011.42 1011.84 1012.31 1012.79 1013.24 1013.62 1013.93 1014.18 1014.40 1014.62 1014.88 1015.19 1015.55 1015.95 1016.36 1016.73 1017.04 1017.27 1017.41 1017.48 1017.50 1017.50 1017.51 1017.55 1017.62 1017.73 1017.87
1004.35 1004.55 1004.90 1005.40 1006.04 1006.78 1007.54 1008.27 1008.89 1009.37 1009.69 1009.89 1010.01 1010.12 1010.27 1010.49 1010.82 1011.22 1011.68 1012.15 1012.60 1012.98 1013.30 1013.58 1013.83 1014.09 1014.38 1014.73 1015.13 1015.55 1015.98 1016.36 1016.68 1016.92 1017.07 1017.14 1017.17 1017.18 1017.21 1017.26 1017.35 1017.48 1017.64
Thickness
5780 5784 5786 5787 5787 5788 5788 5788 5788 5788 5788 5787 5786 5785 5784 5783 5783 5782 5781 5780 5779 5778 5777 5776 5774 5772 5770 5768 5767 5765 5764 5763 5761 5760 5759 5758 5757 5756 5755 5753 5752 5750 5749
5783 5785 5786 5786 5787 5787 5786 5786 5787 5787 5787 5786 5785 5784 5784 5783 5782 5781 5779 5778 5778 5777 5776 5774 5772 5770 5769 5767 5766 5764 5763 5762 5760 5759 5758 5756 5755 5754 5753 5752 5750 5749 5748
5784 5785 5785 5786 5786 5785 5785 5785 5786 5787 5786 5785 5784 5783 5783 5782 5781 5780 5778 5777 5777 5776 5774 5772 5770 5768 5767 5766 5765 5763 5762 5760 5759 5758 5756 5755 5754 5753 5752 5751 5749 5748 5747
5784 5784 5784 5785 5784 5784 5784 5784 5785 5786 5785 5784 5784 5784 5783 5781 5780 5779 5778 5777 5776 5775 5773 5771 5769 5768 5766 5765 5763 5762 5761 5759 5758 5756 5755 5754 5753 5752 5751 5750 5749 5748 5746
5783 5783 5783 5783 5783 5783 5783 5783 5784 5784 5783 5782 5782 5782 5781 5780 5779 5778 5776 5775 5774 5773 5771 5770 5768 5766 5765 5763 5761 5760 5759 5758 5757 5755 5754 5753 5752 5751 5750 5749 5747 5746 5745
5781 5782 5782 5782 5782 5782 5782 5782 5783 5783 5782 5781 5780 5780 5779 5778 5777 5776 5775 5774 5773 5772 5770 5768 5767 5765 5763 5761 5760 5759 5758 5757 5756 5755 5753 5752 5751 5750 5749 5748 5746 5745 5743
5780 5781 5781 5781 5781 5781 5781 5781 5781 5781 5780 5779 5779 5779 5778 5777 5776 5775 5774 5773 5772 5770 5769 5768 5766 5764 5762 5761 5759 5758 5757 5756 5755 5754 5752 5751 5750 5749 5748 5747 5745 5744 5742
5779 5779 5779 5780 5780 5779 5779 5779 5779 5779 5778 5778 5777 5777 5776 5775 5774 5773 5772 5771 5770 5769 5768 5766 5765 5763 5761 5760 5759 5758 5757 5756 5754 5753 5752 5751 5750 5748 5748 5746 5744 5743 5741
5778 5778 5777 5778 5777 5777 5777 5776 5777 5777 5777 5776 5775 5775 5774 5774 5773 5772 5771 5769 5768 5767 5766 5765 5763 5762 5761 5760 5759 5758 5756 5755 5754 5753 5751 5750 5749 5748 5747 5746 5744 5742 5741
5777 5776 5776 5776 5776 5776 5775 5775 5775 5775 5775 5774 5774 5773 5772 5772 5771 5770 5769 5768 5767 5766 5765 5764 5763 5761 5760 5759 5758 5757 5756 5755 5754 5753 5751 5750 5749 5747 5746 5745 5744 5742 5740
5775 5775 5775 5775 5774 5774 5774 5774 5774 5774 5774 5773 5772 5772 5771 5770 5769 5768 5767 5766 5766 5765 5764 5763 5762 5760 5759 5758 5757 5756 5754 5754 5753 5752 5751 5749 5748 5747 5745 5744 5743 5741 5740
5772 5773 5774 5774 5773 5774 5774 5773 5773 5773 5772 5771 5771 5770 5769 5768 5768 5767 5766 5765 5764 5764 5763 5761 5760 5759 5758 5756 5755 5754 5752 5752 5751 5750 5750 5749 5747 5746 5745 5744 5742 5741 5739
5773 5774 5774 5774 5773 5773 5772 5772 5772 5772 5771 5770 5770 5769 5768 5767 5766 5765 5764 5763 5763 5762 5761 5760 5758 5757 5756 5754 5753 5751 5750 5750 5749 5748 5748 5747 5746 5745 5744 5743 5742 5740 5739
5774 5774 5775 5775 5774 5773 5772 5772 5771 5771 5770 5770 5769 5768 5767 5766 5765 5764 5763 5762 5761 5760 5758 5757 5756 5755 5754 5752 5751 5750 5749 5748 5747 5746 5746 5746 5745 5744 5743 5742 5741 5739 5738
5775 5775 5775 5775 5774 5773 5772 5771 5771 5770 5769 5768 5768 5767 5766 5765 5763 5762 5761 5760 5759 5758 5756 5755 5754 5752 5751 5750 5749 5749 5747 5746 5745 5744 5744 5744 5744 5743 5742 5741 5739 5738 5737
5777 5776 5777 5776 5775 5773 5772 5771 5770 5769 5768 5767 5766 5765 5764 5763 5762 5760 5759 5758 5757 5756 5755 5753 5752 5750 5749 5748 5747 5747 5746 5745 5744 5743 5743 5742 5742 5741 5740 5739 5738 5737 5736
5779 5779 5778 5777 5775 5774 5772 5771 5770 5769 5768 5767 5766 5765 5763 5762 5761 5759 5758 5756 5755 5754 5753 5751 5749 5747 5747 5746 5745 5744 5744 5743 5742 5742 5741 5740 5739 5739 5738 5738 5737 5736 5735
5782 5780 5779 5779 5776 5774 5772 5771 5770 5769 5768 5767 5766 5764 5763 5761 5760 5758 5757 5755 5754 5752 5751 5748 5746 5744 5743 5742 5742 5741 5742 5741 5741 5740 5739 5738 5737 5737 5736 5736 5735 5734 5733
5784 5781 5779 5779 5777 5776 5774 5772 5771 5770 5768 5767 5765 5764 5762 5761 5759 5757 5755 5754 5752 5750 5749 5747 5745 5743 5740 5739 5739 5739 5739 5739 5738 5739 5738 5737 5735 5735 5734 5733 5733 5732 5731
5785 5783 5781 5779 5778 5776 5774 5772 5770 5769 5768 5767 5765 5764 5762 5760 5759 5757 5755 5753 5751 5749 5747 5745 5743 5741 5739 5737 5737 5736 5736 5736 5736 5736 5736 5735 5734 5733 5732 5731 5730 5729 5728
5786 5783 5781 5779 5778 5776 5773 5770 5768 5766 5767 5766 5766 5764 5763 5761 5759 5757 5755 5753 5751 5748 5746 5745 5743 5740 5737 5736 5733 5730 5732 5733 5733 5734 5733 5733 5733 5732 5731 5730 5728 5727 5727
5786 5784 5782 5781 5779 5777 5775 5773 5771 5769 5767 5767 5766 5764 5763 5761 5760 5758 5756 5753 5751 5748 5746 5744 5742 5738 5736 5735 5731 5726 5723 5725 5729 5732 5731 5731 5730 5730 5729 5728 5727 5726 5724
5788 5786 5785 5782 5780 5778 5776 5774 5771 5768 5767 5765 5764 5763 5763 5761 5760 5758 5756 5753 5751 5749 5746 5744 5742 5739 5735 5733 5732 5727 5721 5718 5721 5726 5728 5728 5727 5727 5726 5726 5725 5724 5723
5791 5790 5787 5784 5781 5779 5777 5774 5770 5766 5763 5763 5763 5762 5762 5761 5759 5758 5756 5754 5751 5749 5747 5745 5742 5740 5736 5732 5730 5729 5727 5724 5719 5718 5722 5724 5725 5724 5724 5724 5723 5722 5721
5795 5792 5789 5785 5782 5779 5777 5774 5770 5767 5765 5764 5763 5762 5761 5760 5759 5758 5756 5754 5752 5750 5748 5745 5742 5740 5737 5734 5730 5728 5725 5722 5721 5717 5715 5718 5720 5721 5722 5722 5721 5720 5719
5796 5793 5790 5785 5782 5780 5777 5774 5771 5768 5765 5762 5761 5760 5760 5759 5758 5758 5756 5754 5752 5750 5748 5745 5743 5740 5738 5735 5732 5729 5725 5722 5719 5717 5714 5715 5715 5718 5719 5719 5719 5718 5717